Volver al catálogo

SL-12 DEB

LostHEO
NORAD 43918·DEBRIS·🇷🇺 Russia

Lanzado Mar 1, 2010 desde Baikonur Cosmodrome

Loading…

Próximos Pases (próximas 24 horas)

TLE

ObsoletoSource: Space-Track

Época: Oct 6, 2019, 09:01 UTC

1 43918U 10007AP  19279.37596912 +.00004321 +00000-0 +29679-2 0  9998
2 43918 064.9404 007.6115 5997717 026.1898 355.7132 03.97124296018719

Sigue SL-12 DEB en tiempo real con AllMySat

Download on the App Store